DK7AK Weather Reports


time (UTC)temp
C
wind
direction
speed
KPH
gust
KPH
rain 1hr
cm
rain 24hr
cm
rain mn
cm
humidity
%
barometer
mb
20260506092003 17 189 4.8 12.9 0.00 4.04 0.28 68 997.4
20260506091503 17 196 9.7 16.1 0.00 4.04 0.28 68 997.3
20260506091004 17 211 6.4 16.1 0.00 4.04 0.28 68 997.2
20260506090004 16 181 3.2 11.3 0.00 4.04 0.28 75 997.2
20260506085503 16 190 3.2 6.4 0.00 4.04 0.28 76 997.2
20260506085003 15 172 3.2 6.4 0.00 4.04 0.28 76 997.2
20260506084504 15 172 3.2 8.0 0.00 4.04 0.28 76 997.2
20260506084003 15 191 0.0 8.0 0.00 4.04 0.28 75 997.2
20260506083004 15 185 4.8 9.7 0.00 4.04 0.28 79 997.3
20260506082503 15 199 4.8 11.3 0.00 4.04 0.28 81 996.9
20260506082004 14 213 3.2 11.3 0.00 4.04 0.28 80 997.1
20260506081504 14 196 4.8 8.0 0.00 4.04 0.28 80 997.2
20260506081003 14 191 4.8 6.4 0.00 4.04 0.28 80 997.0
20260506080504 15 190 1.6 4.8 0.00 4.04 0.28 80 997.1
20260506073503 14 191 3.2 9.7 0.00 4.04 0.28 83 997.0
20260506073003 14 190 3.2 9.7 0.00 4.04 0.28 84 997.0
20260506072503 14 184 4.8 12.9 0.00 4.04 0.28 85 996.9
20260506072004 14 181 1.6 12.9 0.00 4.04 0.28 87 997.1
20260506071504 14 197 6.4 8.0 0.00 4.04 0.28 90 996.9
20260506071004 13 201 3.2 8.0 0.00 4.04 0.28 91 997.0
20260505210503 12 135 0.0 1.6 0.28 3.78 3.78 98 998.9
20260505210004 12 0 0.0 0.0 0.28 3.78 3.78 98 998.8
20260505205503 12 0 0.0 0.0 0.28 3.78 3.78 98 999.1
20260505205003 12 0 0.0 0.0 0.28 3.78 3.78 98 999.0
20260505204504 12 0 0.0 0.0 0.41 3.78 3.78 98 998.8
20260505204003 12 0 0.0 0.0 0.53 3.78 3.78 98 998.8
20260505203504 12 0 0.0 0.0 0.53 3.78 3.78 98 998.8
20260505203004 12 0 0.0 0.0 0.53 3.78 3.78 98 998.9
20260505202504 12 0 0.0 0.0 0.69 3.78 3.78 98 998.9
20260505202004 12 0 0.0 0.0 0.53 3.66 3.66 98 998.9
20260505201504 12 0 0.0 0.0 0.69 3.66 3.66 98 998.9
20260505201003 12 0 0.0 0.0 0.69 3.66 3.66 98 998.9
20260505200504 12 181 0.0 1.6 0.53 3.51 3.51 98 999.0
20260505200003 12 181 0.0 1.6 0.69 3.51 3.51 98 998.7
20260505195504 12 181 0.0 1.6 0.69 3.51 3.51 98 998.9
20260505195004 12 192 0.0 3.2 0.81 3.51 3.51 98 998.9
20260505193504 13 174 3.2 4.8 0.69 3.25 3.25 98 998.8
20260505193004 13 181 1.6 3.2 0.69 3.25 3.25 98 998.9
20260505192004 13 0 0.0 0.0 0.69 3.10 3.10 97 998.7
20260505191504 13 135 0.0 1.6 0.69 2.97 2.97 97 998.7
20260505191003 13 174 0.0 3.2 0.69 2.97 2.97 97 998.7
20260505190504 13 175 0.0 3.2 0.94 2.97 2.97 96 998.8
20260505190004 13 174 0.0 3.2 0.81 2.84 2.84 96 998.7
20260505185503 13 173 0.0 3.2 0.94 2.84 2.84 96 998.5
20260505184004 13 181 0.0 1.6 1.09 2.69 2.69 95 998.5
20260505183503 13 188 0.0 4.8 1.22 2.57 2.57 95 998.5
20260505183004 13 187 0.0 4.8 1.47 2.57 2.57 95 998.5
20260505182504 13 181 0.0 4.8 1.47 2.44 2.44 94 998.5
20260505182003 13 185 0.0 4.8 1.75 2.44 2.44 94 998.4
20260505181504 13 194 3.2 4.8 1.75 2.29 2.29 94 998.2
20260505181003 13 186 1.6 3.2 1.88 2.29 2.29 93 998.2
20260505175504 13 176 1.6 4.8 1.63 1.88 1.88 92 998.3
20260505174004 14 185 1.6 3.2 1.63 1.63 1.63 90 998.5
20260505173004 14 207 1.6 6.4 1.09 1.09 1.09 89 998.5
20260505172004 14 200 3.2 6.4 0.69 0.69 0.69 87 998.4
20260505171004 15 192 3.2 6.4 0.41 0.41 0.41 85 998.4
20260505170503 15 182 3.2 6.4 0.41 0.41 0.41 83 998.4
20260505170004 15 187 1.6 6.4 0.28 0.28 0.28 82 998.5
20260505164504 16 219 3.2 14.5 0.13 0.13 0.13 76 998.1
20260505164004 17 235 4.8 14.5 0.00 0.00 0.00 74 998.2
20260505163504 17 221 4.8 6.4 0.00 0.00 0.00 71 998.1
20260505162504 18 241 3.2 9.7 0.00 0.00 0.00 66 997.9
20260505162003 18 249 3.2 9.7 0.00 0.00 0.00 65 997.9
20260505161504 18 286 3.2 4.8 0.00 0.00 0.00 64 998.0
20260505161003 18 236 3.2 4.8 0.00 0.00 0.00 63 997.8
20260505160504 18 209 1.6 6.4 0.00 0.00 0.00 62 997.8
20260505153004 18 33 6.4 9.7 0.00 0.00 0.00 63 997.9
20260505152504 18 32 3.2 11.3 0.00 0.00 0.00 63 997.8
20260505152004 18 6 6.4 11.3 0.00 0.00 0.00 62 997.8
20260505151004 19 8 4.8 14.5 0.00 0.00 0.00 61 997.8
20260505150503 19 36 6.4 14.5 0.00 0.00 0.00 61 998.1
20260505140505 20 38 3.2 4.8 0.00 0.00 0.00 61 998.3
20260505124504 21 355 3.2 8.0 0.00 0.00 0.00 57 999.1
20260505124004 21 345 3.2 8.0 0.00 0.00 0.00 56 999.1
20260505123504 21 170 3.2 9.7 0.00 0.00 0.00 57 999.1
20260505123004 21 149 3.2 9.7 0.00 0.00 0.00 56 999.1
20260505122504 22 99 6.4 8.0 0.00 0.00 0.00 52 999.0
20260505122004 22 129 1.6 4.8 0.00 0.00 0.00 52 999.2
20260505121504 22 151 3.2 4.8 0.00 0.00 0.00 50 999.3
20260505121003 22 158 1.6 3.2 0.00 0.00 0.00 51 999.3
20260505120504 21 42 0.0 6.4 0.00 0.00 0.00 51 999.3
20260505120004 21 28 0.0 6.4 0.00 0.00 0.00 51 999.5
20260505115504 21 175 4.8 6.4 0.00 0.00 0.00 51 999.3
20260505114503 21 42 3.2 6.4 0.00 0.00 0.00 52 999.6
20260505114004 21 44 3.2 6.4 0.00 0.00 0.00 50 999.5
20260505113504 21 334 1.6 3.2 0.00 0.00 0.00 50 999.5
20260505112504 21 27 1.6 9.7 0.00 0.00 0.00 50 999.7
20260505112004 22 38 6.4 9.7 0.00 0.00 0.00 49 999.6
20260505111003 22 329 3.2 8.0 0.00 0.00 0.00 51 999.8
20260505110504 21 359 3.2 8.0 0.00 0.00 0.00 51 999.7
20260505102004 21 10 3.2 6.4 0.00 0.00 0.00 55 1000.2
20260505101504 20 17 1.6 6.4 0.00 0.00 0.00 56 1000.3
20260505101004 20 22 1.6 6.4 0.00 0.00 0.00 55 1000.2
20260505100503 20 21 4.8 6.4 0.00 0.00 0.00 54 1000.4
20260505100003 20 47 4.8 9.7 0.00 0.00 0.00 54 1000.5
20260505095503 20 71 3.2 9.7 0.00 0.00 0.00 55 1000.4
20260505095003 20 253 8.0 9.7 0.00 0.00 0.00 56 1000.3
20260505093504 18 10 3.2 6.4 0.00 0.00 0.00 63 1000.5
20260505093004 18 357 3.2 6.4 0.00 0.00 0.00 64 1000.5
20260505092504 18 20 1.6 6.4 0.00 0.00 0.00 66 1000.7